Погода в Нижневартовске

Погода в Нижневартовске : погода сейчас, прогноз погоды и архив. Всё, что Вы хотите узнать о погоде в Нижневартовске!

Поиск расширенной информации на нашем сайте:

Другие новости

Новости СМИ2

Главная страница сайта

Новости сайта

03.07.2017

Напоминаем, что на нашем специализированном сайте Метеоцентр.Азия вы можете получить высокодетализированные автоматические прогнозы погоды по пунктам России, СНГ и мира в авиационном формате (включающие направление и скорость ветра, видимость, явления погоды, количество и форму облачности, нижнюю и верхнюю границу облачности).

Рекомендуем: Отзывы: Горящие туры из кемерово - сезонные скидки.

Погода в Нижневартовске - сегодня

Время (UTC), дата Ветер
(°,м/с) 
Видим.   Явления Облачность Т
(°С)
Тd
(°С)
f(%) Тe
(°С)
Pmin
(гПа)
dP
(гПа)
Po
(мм)
O2
(г/м3)
Тmin Tmax R s Состояние
почвы
21 17.04.18 270 (З) 20000 м    ясно 
-16.9 -19.5 80 -17  1019.4  0.7  759  328           
00 18.04.18 270 (З) 20000 м    3/0 верхняя 
[Ci sp]
-18.8 -20.7 85 -19  1021  1.4  760  331           
03 18.04.18 270 (З) 20000 м    3/0 верхняя 
[Ci fib]
-15.2 -17.9 80 -19  1022.4  1.5  761  326  -19.1      59  неравномерный
сухой снег
100% 
06 18.04.18 250 (З) 20000 м    3/0 верхняя 
[Ci fib]
-11.4 -16.7 65 -16  1022.9  0.6  762  322           
09 18.04.18 260 (З) 20000 м    ясно 
-7.8 -16.3 50 -11  1022.6  -0.3  761  317           
12 18.04.18 290 (З) 20000 м    8/0 верхняя 
[Ci fib]
-5.7 -16.6 42 -7  1020.7  -1.6  760  314           
15 18.04.18 170 (Ю) 20000 м    ясно 
-8 -16.7 50 -11  1019.3  -1.6  759  316    -5.5       
18 18.04.18 180 (Ю) 20000 м    10/0 средняя, верхняя 
[Ac trans|Ci sp]
-8.9 -16.2 55 -12  1017.1  -2.2  757  317           
21 18.04.18 200 (Ю) 20000 м    8/0 верхняя 
[Ci sp]
-7.6 -16 51 -12  1014.2  -2.7  755  314           
00 19.04.18 200 (Ю) 20000 м    10/0 средняя 
[Ac As]
-6.2 -14.3 53 -10  1011.2  -3  753  312           
03 19.04.18 220 (ЮЗ) 5{10}  20000 м    10/0 средняя 
[Ac As]
-3.8 -12 53 -7  1009.2  -2  752  308  -9.1      59  неравномерный
сухой снег
100% 
15 19.04.18 230 (ЮЗ) 8-13{15}  3600 м  слаб. ливневой снег  10/5 840 м кучево-дожд., средняя 
[Cb calv|As op]
+1.5 -4 67 -2  1004.5  0.2  748  300    +3  0.0     
03 20.04.18 210 (ЮЗ) 8{10}  4000 м  слаб. ливневой снег  10/8 960 м кучево-дожд., средняя 
[Cb calv|As op]
+1.2 -3.3 72 -3  998.6  -2.2  744  299  -0.2    0.5  59  неравномерный
сухой снег
100% 
12 20.04.18 340 (С) 3900 м  слаб. снег{ливн. осадки}  10/3 200 м средняя 
[Frnb|As op]
+1 +0.2 94 998.5  1.8  744  299           
15 20.04.18 170 (Ю) 1300 м  снег{ливн. осадки}  10/10 60 м 
[Frnb|Ns]
+0.1 -0.2 98 -1  999  0.5  744  300    +5.8     
21 20.04.18 360 (С) 3300 м  слаб. снег  10/10 1000 м 
[Ns]
-2.4 -3.3 94 -3  997.9  -0.3  743  303           
03 21.04.18 320 (СЗ) 20000 м  {ливн. осадки}  10/3 300 м средняя, верхняя 
[St|Ac trans|Ci sp]
-3.1 -6.2 79 -4  999.8  1.2  745  304  -3.5    62  неравномерный
сухой снег
100% 
06 21.04.18 330 (СЗ) 20000 м  {ливн. осадки}  9/3 600 м средняя 
[Sc|Ac trans]
-2 -9.1 58 -4  1001.3  1.6  746  304           
09 21.04.18 360 (С) 20000 м  в посл. час ливневой снег  6/3 600 м кучево-дожд., средняя 
[Cb calv|Ac trans]
-1.4 -10.9 48 -3  1002.6  1.3  747  303           
12 21.04.18 260 (З) 20000 м  {ливн. осадки}  10/0 верхняя 
[Ci sp]
-1.7 -15 35 -4  1004.1  1.5  748  305           
18 21.04.18 040 (СВ) 20000 м    ясно 
-7.9 -16.5 50 -9  1006  0.6  749  312           
21 21.04.18 010 (С) 20000 м    ясно 
-9.5 -15.9 60 -12  1006.3  0.3  749  314           
00 22.04.18 020 (С) 20000 м    3/0 верхняя 
[Ci sp]
-12.6 -16.9 70 -15  1006.3  749  318           
06 22.04.18 350 (С) 20000 м    ясно 
-4.6 -15.7 42 -7  1008.3  1.2  751  309           
09 22.04.18 240 (ЮЗ) 20000 м    ясно 
-2.5 -14.8 38 -5  1009.5  1.4  752  307           
Время (UTC), дата Ветер
(°,м/с) 
Видим.   Явления Облачность Т
(°С)
Тd
(°С)
f(%) Тe
(°С)
Pmin
(гПа)
dP
(гПа)
Po
(мм)
O2
(г/м3)
Тmin Tmax R s Состояние
почвы

Для получения пояснительной информации подведите курсор к названию столбца.

ПОГОДА в Нижневартовске - архив

Всё, что Вы хотите узнать о погоде в Нижневартовске - удобно и подробно!

Выберите нужную дату (начиная с 1 января 2015* года) и нажмите кнопку "Найти".
Будут отображены архивные сводки погоды по пункту Нижневартовск, начиная с указанной даты.


Отображать данные в формате CSV (для использования в таблицах Excel)


Внимание! Наш архив погоды предназначен исключительно для личного некоммерческого использования в познавательных целях. Если Вам необходимы официальные справки о состоянии погоды (для производственных, юридических, коммерческих и т.п. целей), обращайтесь в органы Росгидромета.

*Примечание: данная дата относится к архиву по метеостанциям СССР (Россия, СНГ, Балтия).
Архив по метеостанциям Зарубежной Европы и Азии (кроме Китая) хранится 10 дней, по другим регионам земного шара (Китай, Африка, Америка, Австралия, Океания) - 1 день.

Нижневартовск - район местоположения метеостанции


Название, широта, долгота, высота метеостанции:
Нижневартовск 60.8°ш. 76.7°д. 44 м над ур. моря [Российская Федерация]

Дополнительная информация

В oтличие oт бoльшинства пoгoдных сайтoв мы публикуем пoдрoбную метеoинфoрмацию в детальнoм прoфессиoнальнoм фoрмате.

Характеристики температуры и влажнoсти вoздуха измеряются на высoте 2 м в тени вдали oт зданий и деревьев.
Скoрoсть ветра измеряется на высoте 10 м (на урoвне рoста челoвека скoрoсть ветра ниже в 1.5-2 раза). Если метеoстанция нахoдится в гoрoде или в лесу, тo скoрoсть ветра занижена на 2-4 м/с пo сравнению с oткрытым местoм. Скoрoсть ветра над акватoриями крупных рек и oзёр, а также на вершинах хoлмoв на 2-5 м/с выше, чем в oбычных услoвиях.
Атмoсфернoе давление в разных тoчках местнoсти мoжет значительнo oтличаться oт давления на метеoстанции, в зависимoсти oт услoвий рельефа (при пoдъёме на 10 м давление пoнижается примернo на 1 мм рт.ст.).